Regional Weather Roundup
Issued by NWS

Home | Current Version | Previous Version | Graphics & Text | Print | Product List | Glossary Off
Versions: 1 2 3 4 5 6 7 8 9 10 11 12 13 14 15 16 17 18 19 20 21 22 23 24 25 26 27 28 29 30 31 32 33 34 35 36 37 38 39 40 41 42 43 44 45 46 47 48 49 50

239
ASUS43 KDMX 211001
RWRIA

WEATHER ROUNDUP FOR IOWA
NATIONAL WEATHER SERVICE DES MOINES IA
500 AM CDT MON AUG 21 2017

NOTE: "FAIR" INDICATES FEW OR NO CLOUDS BELOW 12,000 FEET WITH NO
SIGNIFICANT WEATHER AND/OR OBSTRUCTIONS TO VISIBILITY.

* - THESE STATIONS ARE NOT NWS STATIONS...THUS NOT UNDER NWS
QUALITY CONTROL.  THEY ALSO DO NOT REPORT WEATHER SUCH
AS PRECIPITATION OR FOG.

IAZ001>003-012>014-020>022-031>034-043>046-211100-
   NORTHWEST IOWA

CITY           SKY/WX    TMP DP  RH WIND       PRES   REMARKS
CARROLL *      LGT RAIN  68  66  94 SE5       30.06R
LE MARS *      CLOUDY   104 N/A N/A S6        29.98S
ORANGE CITY *  CLOUDY    70  70 100 CALM      30.00R
SHELDON *      CLOUDY    68  66  94 E7        29.98R
SIOUX CITY     CLOUDY    68  66  93 SE9       29.99R
SPENCER        CLOUDY    69  68  96 SE10      30.01R
STORM LAKE *   LGT RAIN  66  66 100 SE7       30.02F
$$

IAZ055>058-069>071-079>083-090>094-211100-
   SOUTHWEST IOWA

CITY           SKY/WX    TMP DP  RH WIND       PRES   REMARKS
AUDUBON *      LGT RAIN  68  63  83 E7        30.05F
CLARINDA *       N/A     70  68  94 VRB5G14   30.03F
COUNCIL BLFS * CLOUDY    68  68 100 E17G26    30.02R
CRESTON *      CLOUDY    68  64  88 NE15G23   30.07S
HARLAN  *      HVY RAIN  66  64  94 E7G14     30.06F
LAMONI         CLOUDY    69  67  93 N8        30.06R
RED OAK *      LGT RAIN  68  66  94 NE17      30.03S
SHENANDOAH *   CLOUDY    68  66  94 NE9       30.02R
$$

IAZ047>049-059>061-072>074-084-211100-
   CENTRAL IOWA

CITY           SKY/WX    TMP DP  RH WIND       PRES   REMARKS
AMES           RAIN      68  68 100 NW3       30.12R FOG
ANKENY *       LGT RAIN  68  66  94 VRB6      30.13R
BOONE *        LGT RAIN  68  66  94 SE8G15    30.12R
CHARITON *     CLOUDY    70  64  83 N10G18    30.06R
DES MOINES     TSTM      68  65  90 N25G38    30.04F FOG
GRINNELL*      RAIN      68  66  93 N9        30.10S
KNOXVILLE *    CLOUDY    68  66  94 N8        30.06R
MARSHALLTOWN   RAIN      70  69  97 W8        30.11R FOG
NEWTON *       CLOUDY    68  66  94 NW14G21   30.09R
PELLA *        LGT RAIN  68  65  93 N5        30.08R
PERRY *        LGT RAIN  67  66  97 E9        30.09F
$$

IAZ004>006-015-016-023>025-035-036-211100-
   NORTH CENTRAL IOWA

CITY           SKY/WX    TMP DP  RH WIND       PRES   REMARKS
ALGONA *       CLOUDY    70  70 100 S7        30.04R
CLARION *      CLOUDY    70  66  88 SE33G43   29.95F
ESTHERVILLE    CLOUDY    68  68 100 SE5       30.03R
FORT DODGE *   CLOUDY    70  63  78 SW10      30.07R
FOREST CITY *  DRIZZLE   72  63  73 SW14G24   30.03S
WEBSTER CITY * LGT RAIN  68  66  94 SE22G29   30.03F
IOWA FALLS *   RAIN      70  67  89 SW9       30.14R
$$

IAZ007>011-017>019-026>030-037>042-050>054-066-211100-
   NORTHEAST IOWA

CITY           SKY/WX    TMP DP  RH WIND       PRES   REMARKS
CEDAR RAPIDS   CLOUDY    66  66 100 W7        30.06R FOG
CHARLES CITY * CLOUDY    70  70 100 CALM      30.07R
CLINTON *      FOG       64  64 100 CALM      30.04S VSB 1/4
DECORAH *        N/A    N/A N/A N/A CALM      30.06R
DUBUQUE        CLOUDY    64  62  93 CALM      30.05R
MONTICELLO *   CLOUDY    63  63 100 CALM      30.03R
OELWEIN *      CLOUDY    70  70 100 NW7G15    30.09R
WATERLOO       LGT RAIN  69  67  93 NW5       30.08R
$$

IAZ064-065-067-068-078-211100-
   EAST CENTRAL IOWA

CITY           SKY/WX    TMP DP  RH WIND       PRES   REMARKS
DAVENPORT      FOG       66  65  96 S3        30.06R VSB 1/4
IOWA CITY      CLOUDY    69  67  93 S3        30.04R
MUSCATINE *    CLOUDY    66  66 100 CALM      30.04R
QUAD CITIES    CLOUDY    67  65  93 CALM      30.03R
$$

IAZ062-063-075>077-085>089-095>099-211100-
   SOUTHEAST IOWA

CITY           SKY/WX    TMP DP  RH WIND       PRES   REMARKS
BURLINGTON     CLOUDY    68  68 100 SW5       30.04R
FAIRFIELD *    CLOUDY    70  66  88 S6        30.02F
FORT MADISON * CLOUDY    70  70 100 CALM      30.05S
KEOKUK *       CLOUDY    68  68 100 CALM      30.04R
OSKALOOSA *    CLOUDY    68  66  93 NW8       30.07R
OTTUMWA        CLOUDY    71  66  84 W7        30.05R
$$

ABBREVIATIONS USED IN REMARKS
   TC - TEMPERATURES IN CELSIUS
  WCI - WIND CHILL INDEX
   HX - HEAT INDEX
  VSB - VISIBILITY
$$





USA.gov is the U.S. government's official web portal to all federal, state and local government web resources and services.